Regional Weather Roundup
Issued by NWS

Home | Current Version | Previous Version | Graphics & Text | Print | Product List | Glossary On
Versions: 1 2 3 4 5 6 7 8 9 10 11 12 13 14 15 16 17 18 19 20 21 22 23 24 25 26 27 28 29 30 31 32 33 34 35 36 37 38 39 40 41 42 43 44 45 46 47 48 49 50
000
ASUS43 KMKX 280421
RWRWI

WISCONSIN REGIONAL WEATHER ROUNDUP
NATIONAL WEATHER SERVICE MILWAUKEE/SULLIVAN WI
1100 PM CDT FRI MAR 27 2015

NOTE: "FAIR" INDICATES FEW OR NO CLOUDS BELOW 12,000 FEET WITH NO
SIGNIFICANT WEATHER AND/OR OBSTRUCTIONS TO VISIBILITY.

WIZ001-002-006>008-014>016-023>028-280500-
NORTHWEST WISCONSIN

CITY           SKY/WX    TMP DP  RH WIND       PRES   REMARKS
SUPERIOR ARPT  PTCLDY    24  18  78 NE5       30.20R WCI  18
ASHLAND        CLEAR     14  10  84 CALM      30.20S
HAYWARD        PTCLDY    22   7  52 N6        30.17R WCI  14
SIREN          PTCLDY    24   8  51 CALM      30.17S
CUMBERLAND     PTCLDY    25  18  74 W3        30.16R
RICE LAKE      MOCLDY    25  17  70 CALM      30.18S
CHETEK         PTCLDY    22  13  67 E5        30.17R WCI  16
LADYSMITH      CLEAR     24  15  66 NE3       30.17S
EAU CLAIRE     PTCLDY    25  10  53 SW5       30.18R WCI  19
MENOMONIE      PTCLDY    27  12  54 SW3       30.20R
NEW RICHMOND   PTCLDY    25  13  58 SW5       30.18S WCI  20
OSCEOLA        PTCLDY    26  14  60 S5        30.21S WCI  21
$$

WIZ003>005-009-010-017-018-280500-
NORTH CENTRAL WISCONSIN

CITY           SKY/WX    TMP DP  RH WIND       PRES   REMARKS
MANITOWISH WTR CLEAR     15   6  68 CALM      30.15R
ARBOR VITAE    CLEAR     18   6  58 CALM      30.15S
WOODRUFF       CLEAR     18   6  58 CALM      30.15S
RHINELANDER    CLEAR     19  -1  41 N3        30.15R
EAGLE RIVER    CLEAR     11   4  71 CALM      30.15R
LAND O LAKES   CLEAR      7   3  82 CALM      30.16R
PHILLIPS       PTCLDY    21   9  60 NE5       30.15R WCI  14
TOMAHAWK       CLEAR     12   7  79 CALM      30.16R
MEDFORD        CLEAR     19  12  74 E3        30.14S
MERRILL        CLEAR     16   9  74 CALM      30.17R
$$

WIZ029-030-035-036-043>047-280500-
CENTRAL WISCONSIN

CITY           SKY/WX    TMP DP  RH WIND       PRES   REMARKS
WAUSAU         CLEAR     22   9  57 E3        30.16R
MOSINEE        CLEAR     23  10  58 CALM      30.17S
MARSHFIELD     CLEAR     23  12  62 CALM      30.16S
STEVENS POINT  CLEAR     17   8  69 CALM      30.18S
WAUPACA        CLEAR     23  11  61 SE3       30.21S
WAUTOMA        CLEAR     17   9  71 CALM      30.20S
WISC RAPIDS    CLEAR     19   7  59 CALM      30.19S
CAMP DOUGLAS   CLEAR     18  13  80 W1        30.19R
$$

WIZ011>013-019>022-031-037>040-048>050-280500-
NORTHEAST WISCONSIN

CITY           SKY/WX    TMP DP  RH WIND       PRES   REMARKS
ANTIGO         CLEAR     19   8  61 SE7       30.16R WCI  10
SHAWANO        CLEAR     19  13  77 NE3       30.22S
OCONTO         CLEAR     19   6  57 CALM      30.24R
STURGEON BAY   CLEAR     18   7  62 N6        30.24R WCI   9
GREEN BAY      CLEAR     22  12  65 CALM      30.23R
MANITOWOC      CLEAR     19  16  88 CALM      30.23S
APPLETON       PTCLDY    23   7  50 VRB3      30.21R
CLINTONVILLE   CLEAR     21  12  68 E3        30.21R
OSHKOSH        CLEAR     19  10  68 S3        30.21R
$$

WIZ032>034-041-042-053>061-280500-
SOUTHWEST WISCONSIN

CITY           SKY/WX    TMP DP  RH WIND       PRES   REMARKS
LA CROSSE      PTCLDY    25  14  63 CALM      30.20R
SPARTA         CLEAR     17  10  74 CALM      30.21R
VIROQUA        PTCLDY    24  11  57 CALM      30.17S
BOSCOBEL       CLEAR     23  14  68 CALM      30.21S
PRAIRIE DU CHI CLEAR     23  13  66 CALM      30.22R
PLATTEVILLE    FAIR      26  11  53 W5        30.18S WCI  20
$$

WIZ056-057-062-063-064-067-068-280500-
SOUTH CENTRAL WISCONSIN

CITY           SKY/WX    TMP DP  RH WIND       PRES   REMARKS
REEDSBURG      CLEAR     22   7  51 CALM      30.19S
BARABOO/DELLS  CLEAR     22   7  52 CALM      30.19R
LONE ROCK      CLEAR     21  14  74 CALM      30.20S
MINERAL POINT  CLEAR     25  10  54 CALM      30.17S
MADISON        FAIR      25   7  46 S3        30.20S
MIDDLETON      FAIR      26   8  45 SE6       30.21R WCI  20
WATERTOWN      CLEAR     20  13  74 SE3       30.20S
MONROE         CLEAR     27  10  50 E6        30.19S WCI  20
JANESVILLE     CLEAR     23  18  80 SE5       30.21S WCI  17
$$

WIZ051-052-058>065-066-070>072-280500-
SOUTHEAST WISCONSIN

CITY           SKY/WX    TMP DP  RH WIND       PRES   REMARKS
MILWAUKEE      CLEAR     24  11  57 N3        30.22R
WAUKESHA       CLEAR     18  12  79 E6        30.21F WCI   9
MILWAUKEE/TIMM CLEAR     21  12  68 CALM      30.23S
RACINE         CLEAR     23  12  62 N7        30.23S WCI  15
BURLINGTON     CLEAR     17  11  78 CALM      30.21S
KENOSHA        CLEAR     19  14  81 CALM      30.22R
FOND DU LAC    FAIR      20  11  68 SE6       30.21R WCI  12
SHEBOYGAN      CLEAR     19  13  77 CALM      30.22R
WEST BEND      CLEAR     19  14  79 CALM      30.21S
JUNEAU         CLEAR     20  14  77 SE5       30.22R WCI  13
$$

LSZ147-162-280500-
LAKE SUPERIOR

STATION/POSITION TIME  TEMP    WIND        PRES    WAVE
                       AIR SEA DIR/SP/G            HT/PER
                 (UTC) (F)     (DEG/KT/KT) (MB)    (FT/S)
DEVILS ISLAND    0400   23     130/  4/  4 1024.4R
PORT WING        0300   23     130/  2/  5 1022.4R
$$

LMZ867-665-643>646-280500-
LAKE MICHIGAN

STATION/POSITION TIME  TEMP    WIND        PRES    WAVE
                       AIR SEA DIR/SP/G            HT/PER
                 (UTC) (F)     (DEG/KT/KT) (MB)    (FT/S)
NORTHPORT PIER   0318   19      30/  8/ 13 1024.0R
SISTER BAY       0317   16        CALM       N/A
KEWAUNEE LAKESHO 0400           70/  6/ 11   N/A
SHEBOYGAN LAKESH 0400   25      40/ 11/ 13 1024.8R
PORT WASHINGTON  0300   23     330/  3/  6 1024.0R
MILWAUKEE LAKESH 0400   26      10/  9/ 11   N/A
KENOSHA   LAKESH 0400   25     330/  7/ 12 1023.4R
$$

TC  - TEMPERATURE IN CELSIUS
VSB - VISIBILITY IN STATUTE MILES
WCI - WIND CHILL INDEX
HX  - HEAT INDEX




USA.gov is the U.S. government's official web portal to all federal, state and local government web resources and services.